Location: Unspecified
(0.0000°N, 0.0000°E)
Time: 14:22:30
(UTC+02:00)

GPS 2-12 Rocket1 - Visible Passes

Search period start: 23 October 2014 00:00
Search period end: 01 November 2014 23:00
Orbit: 591 x 660 km, 20.0° (Epoch: 21 October)

Date Brightness Start Highest point End Pass type
(mag) Time Alt. Az. Time Alt. Az. Time Alt. Az.
23 Oct 4.1 21:39:35 10° WSW 21:42:36 41° WSW 21:42:36 41° WSW visible
24 Oct 5.4 06:23:30 10° N 06:25:13 12° NNE 06:26:57 10° NE visible
24 Oct 3.8 20:14:13 10° SW 20:18:31 40° SSE 20:22:29 11° E visible
24 Oct 5.1 21:57:42 10° W 21:59:37 24° W 21:59:37 24° W visible
25 Oct 5.1 06:40:30 11° NNW 06:43:27 18° NNE 06:46:41 10° ENE visible
25 Oct 3.0 20:31:59 10° WSW 20:36:34 73° SSE 20:39:30 21° ENE visible
25 Oct 6.0 22:16:11 10° W 22:16:39 12° W 22:16:39 12° W visible
26 Oct 4.5 05:57:35 10° NW 06:01:35 29° NNE 06:05:41 10° E visible
26 Oct 3.2 19:50:04 10° WSW 19:54:36 61° NNW 19:56:32 32° NE visible
27 Oct 5.5 04:37:22 14° NE 04:37:22 14° NE 04:38:47 10° ENE visible
27 Oct 3.7 06:15:11 10° NW 06:19:39 50° NNE 06:24:13 10° E visible
27 Oct 4.0 20:08:28 10° W 20:12:38 34° NNW 20:13:32 31° N visible
28 Oct 4.6 04:54:23 26° NNE 04:54:23 26° NNE 04:57:53 10° ENE visible
28 Oct 4.9 20:27:18 10° WNW 20:30:32 21° NNW 20:30:32 21° NNW visible
29 Oct 3.6 05:11:23 42° N 05:12:03 45° NNE 05:16:29 10° E visible
29 Oct 4.1 19:00:42 10° W 19:05:03 37° NNW 19:09:17 10° NE visible
29 Oct 5.6 20:46:43 10° NW 20:47:30 12° NW 20:47:30 12° NW visible
30 Oct 3.0 05:28:22 38° WNW 05:30:04 83° NNE 05:34:42 10° ESE visible
30 Oct 4.8 19:19:26 10° WNW 19:23:07 23° NNW 19:26:44 10° NNE visible
31 Oct 6.0 04:08:12 13° E 04:08:12 13° E 04:08:45 10° E visible
31 Oct 3.4 05:45:20 22° W 05:48:05 54° SSW 05:52:36 10° ESE visible
31 Oct 5.3 19:38:42 10° NW 19:41:16 15° NNW 19:43:48 10° NNE visible
01 Nov 5.2 04:25:09 24° ESE 04:25:09 24° ESE 04:27:01 10° ESE visible
01 Nov 4.3 06:02:16 11° W 06:06:08 31° SSW 06:10:13 10° SE visible
